Weather History for KFBG - April, 2013

Change the Weather History Date:

Wednesday, April 24, 2013

  Actual Average Record
Temperature  
Mean Temperature 64 °F -  
Max Temperature 78 °F 72 °F 87 °F (2001)
Min Temperature 50 °F 52 °F 42 °F (2003)
Degree Days  
Heating Degree Days 2    
Growing Degree Days 14 (Base 50)    
Moisture  
Dew Point 53 °F    
Average Humidity 76    
Maximum Humidity 100    
Minimum Humidity 41    
Precipitation  
Precipitation 0.22 in - - ()
Sea Level Pressure  
Sea Level Pressure 30.12 in    
Wind  
Wind Speed 5 mph (SSW)    
Max Wind Speed 13 mph    
Max Gust Speed 22 mph    
Visibility 9 miles    
Events Rain    
Averages and records for this station are not official NWS values.
T = Trace of Precipitation, MM = Missing Value Source: NWS Daily Summary

Daily Weather History Graph

Daily Weather History Graph

Search for Another Location

Airport or City:

Trip Planner

Search our weather history database for the weather conditions in past years. The results will help you decide how hot, cold, wet, or windy it might be!

Date:

Astronomy

Apr. 24, 2013 Rise Set
Actual Time 6:32 AM EDT 7:55 PM EDT
Civil Twilight 6:05 AM EDT 8:22 PM EDT
Nautical Twilight 5:33 AM EDT 8:54 PM EDT
Astronomical Twilight 5:00 AM EDT 9:28 PM EDT
Moon 6:58 PM EDT (4/24) 5:32 AM EDT (4/24)
Length of Visible Light 14h 17m
Length of Day
13h 23m
Waxing Gibbous, 98% of the Moon is Illuminated
Apr 24
Waxing Gibbous
Apr 25
Full
May 2
Last Quarter
May 9
New
May 18
First Quarter

Hourly Weather History & Observations

Time (EDT) Temp. Dew Point Humidity Pressure Visibility Wind Dir Wind Speed Gust Speed Precip Events Conditions
12:34 AM 55.4 °F 50.0 °F 82% 30.15 in 10.0 mi Variable 2.3 mph - N/A Rain Light Rain
12:44 AM 53.6 °F 50.0 °F 88% 30.15 in 10.0 mi Calm Calm - N/A   Clear
12:58 AM 52.7 °F 50.7 °F 93% 30.16 in 10.0 mi East 2.3 mph - 0.00 in   Clear
1:58 AM 50.9 °F 48.7 °F 92% 30.15 in 10.0 mi Calm Calm - N/A   Clear
2:58 AM 51.4 °F 50.2 °F 95% 30.14 in 10.0 mi SSW 2.3 mph - N/A   Clear
3:10 AM 51.8 °F 50.0 °F 94% 30.13 in 10.0 mi SSW 3.5 mph - N/A Rain Light Rain
3:58 AM 52.5 °F 51.1 °F 95% 30.14 in 10.0 mi SSW 3.5 mph - 0.00 in Rain Light Rain
4:30 AM 51.8 °F 51.8 °F 100% 30.13 in 10.0 mi SSW 4.6 mph - N/A   Clear
4:33 AM 51.8 °F 51.8 °F 100% 30.13 in 10.0 mi SSW 4.6 mph - N/A Rain Light Rain
4:58 AM 52.0 °F 51.4 °F 98% 30.14 in 10.0 mi SSW 4.6 mph - 0.00 in Rain Light Rain
5:29 AM 51.8 °F 51.8 °F 100% 30.13 in 10.0 mi WNW 1.2 mph - N/A   Clear
5:30 AM 51.8 °F 51.8 °F 100% 30.13 in 10.0 mi West 1.2 mph - N/A Rain Light Rain
5:34 AM 51.8 °F 51.8 °F 100% 30.13 in 10.0 mi Variable 2.3 mph - N/A   Clear
5:35 AM 51.8 °F 51.8 °F 100% 30.13 in 10.0 mi SSW 2.3 mph - N/A Rain Light Rain
5:45 AM 51.8 °F 51.8 °F 100% 30.14 in 10.0 mi West 1.2 mph - N/A   Clear
5:50 AM 51.8 °F 51.8 °F 100% 30.14 in 10.0 mi SW 3.5 mph - N/A Rain Light Rain
5:54 AM 51.8 °F 51.8 °F 100% 30.14 in 10.0 mi SW 3.5 mph - N/A Rain Light Rain
5:58 AM 52.0 °F 51.8 °F 99% 30.15 in 10.0 mi SSW 2.3 mph - 0.00 in Rain Light Rain
6:58 AM 51.8 °F 51.4 °F 99% 30.16 in 10.0 mi SW 4.6 mph - 0.00 in Rain Light Rain
7:58 AM 54.3 °F 53.6 °F 97% 30.17 in 10.0 mi SSW 5.8 mph - 0.00 in   Clear
8:16 AM 55.4 °F 53.6 °F 94% 30.17 in 10.0 mi SSW 8.1 mph - N/A Rain Light Rain
8:50 AM 59.0 °F 53.6 °F 82% 30.16 in 10.0 mi SW 5.8 mph - N/A   Clear
8:58 AM 59.4 °F 54.1 °F 83% 30.18 in 10.0 mi SW 6.9 mph - 0.00 in   Clear
8:59 AM 59.0 °F 53.6 °F 82% 30.17 in 10.0 mi SW 9.2 mph - N/A Rain Light Rain
9:20 AM 62.6 °F 53.6 °F 72% 30.16 in 10.0 mi Variable 6.9 mph - N/A   Clear
9:22 AM 62.6 °F 53.6 °F 72% 30.16 in 1.2 mi SW 10.4 mph - N/A   Haze
9:23 AM 62.6 °F 53.6 °F 72% 30.16 in 0.8 mi SW 9.2 mph - N/A Rain Light Rain
9:27 AM 62.6 °F 53.6 °F 72% 30.16 in 0.5 mi SSW 8.1 mph - N/A Rain Light Rain
9:31 AM 62.6 °F 53.6 °F 72% 30.16 in 0.8 mi SSW 9.2 mph - N/A Rain Light Rain
9:32 AM 62.6 °F 53.6 °F 72% 30.16 in 10.0 mi SSW 9.2 mph - N/A   Clear
9:33 AM 62.6 °F 53.6 °F 72% 30.16 in 1.2 mi South 9.2 mph - N/A Rain Light Rain
9:34 AM 62.6 °F 53.6 °F 72% 30.16 in 2.5 mi Variable 6.9 mph - N/A   Haze
9:36 AM 62.6 °F 53.6 °F 72% 30.16 in 8.0 mi SW 8.1 mph - N/A   Clear
9:58 AM 64.0 °F 54.0 °F 70% 30.16 in - SSW 12.7 mph - 0.22 in   Clear
10:56 AM 68.0 °F 53.6 °F 60% 30.15 in 10.0 mi SSW 9.2 mph - N/A   Clear
11:58 AM 70.7 °F 54.1 °F 56% 30.12 in 10.0 mi SW 8.1 mph - N/A   Clear
12:58 PM 72.7 °F 52.9 °F 50% 30.10 in 10.0 mi SSW 10.4 mph - N/A   Clear
1:58 PM 74.8 °F 53.1 °F 47% 30.10 in 10.0 mi SSW 9.2 mph 18.4 mph N/A   Clear
2:58 PM 77.2 °F 52.3 °F 42% 30.08 in 10.0 mi SSW 8.1 mph 21.9 mph N/A   Clear
3:08 PM 77.0 °F 51.8 °F 41% 30.06 in 10.0 mi SW 12.7 mph 18.4 mph N/A   Clear
3:58 PM 76.5 °F 52.7 °F 43% 30.06 in 10.0 mi SW 9.2 mph - N/A   Partly Cloudy
4:58 PM 77.4 °F 52.3 °F 42% 30.05 in 10.0 mi SSW 10.4 mph - N/A   Clear
5:43 PM 77.0 °F 51.8 °F 41% 30.02 in 10.0 mi SW 12.7 mph 19.6 mph N/A   Clear
5:58 PM 76.5 °F 52.2 °F 43% 30.02 in 10.0 mi South 10.4 mph 18.4 mph N/A   Clear
6:58 PM 75.0 °F 53.1 °F 46% 30.02 in 10.0 mi SSW 8.1 mph - N/A   Clear
7:58 PM 73.0 °F 53.2 °F 50% 30.03 in 10.0 mi SSW 5.8 mph - N/A   Clear
8:58 PM 72.0 °F 53.4 °F 52% 30.04 in 10.0 mi SSW 6.9 mph - N/A   Clear
10:55 PM 67.5 °F 55.4 °F 65% 30.05 in 10.0 mi South 4.6 mph - N/A   Clear
11:55 PM 66.9 °F 57.0 °F 70% 30.04 in 10.0 mi South 6.9 mph - N/A   Scattered Clouds
11:56 PM 66.2 °F 57.2 °F 73% 30.04 in 10.0 mi South 6.9 mph - N/A   Scattered Clouds